EW5191 Weather Reports


Display with metric or nautical units.
time (UTC)temp
F
wind
direction
speed
MPH
gust
MPH
rain 1hr
in
rain 24hr
in
rain mn
in
humidity
%
barometer
mb
20260903230054 86 142 6.0 12.0 0.00 0.00 0.00 17 1002.0
20260903224600 86 179 3.0 13.0 0.00 0.00 0.00 17 1002.1
20260903223053 86 113 2.0 16.0 0.00 0.00 0.00 17 1002.2
20260903220051 86 117 11.0 16.0 0.00 0.00 0.00 16 1002.3
20260903214602 86 208 9.0 18.0 0.00 0.00 0.00 16 1002.4
20260903213051 86 140 6.0 14.0 0.00 0.00 0.00 17 1002.4
20260903210058 85 122 4.0 12.0 0.00 0.00 0.00 17 1002.6
20260903204559 86 223 7.0 22.0 0.00 0.00 0.00 16 1002.7
20260903203043 85 142 7.0 15.0 0.00 0.00 0.00 16 1002.8
20260903200055 85 311 2.0 14.0 0.00 0.00 0.00 16 1002.8
20260903194543 84 255 6.0 18.0 0.00 0.00 0.00 16 1003.0
20260903193040 84 263 9.0 14.0 0.00 0.00 0.00 16 1003.0
20260903190042 84 246 6.0 32.0 0.00 0.00 0.00 16 1003.4
20260903184542 84 212 9.0 21.0 0.00 0.00 0.00 16 1003.3
20260903183043 83 237 10.0 22.0 0.00 0.00 0.00 16 1003.5
20260903180039 82 136 9.0 24.0 0.00 0.00 0.00 16 1003.8
20260903174530 82 194 8.0 15.0 0.00 0.00 0.00 20 1003.8
20260903173029 82 151 9.0 14.0 0.00 0.00 0.00 22 1004.0
20260903170035 78 127 1.0 7.0 0.00 0.00 0.00 27 1004.3
20260903164521 77 28 0.0 6.0 0.00 0.00 0.00 31 1004.3
20260903163025 76 110 1.0 5.0 0.00 0.00 0.00 30 1004.4
20260903160013 73 22 3.0 7.0 0.00 0.00 0.00 33 1004.5
20260903154510 72 8 1.0 4.0 0.00 0.00 0.00 34 1004.6
20260903153006 71 140 1.0 3.0 0.00 0.00 0.00 35 1004.6
20260903150005 69 327 0.0 4.0 0.00 0.00 0.00 33 1004.8
20260903144507 67 240 2.0 4.0 0.00 0.00 0.00 34 1004.7
20260903143003 65 226 4.0 6.0 0.00 0.00 0.00 36 1004.7
20260903140001 60 241 0.0 1.0 0.00 0.00 0.00 44 1004.6
20260903134600 59 26 0.0 1.0 0.00 0.00 0.00 47 1004.5
20260903133058 57 219 0.0 1.0 0.00 0.00 0.00 46 1004.2
20260903131654 59 219 0.0 1.0 0.00 0.00 0.00 44 1003.9
20260903130053 60 218 0.0 1.0 0.00 0.00 0.00 42 1003.7
20260903124600 61 161 1.0 1.0 0.00 0.00 0.00 42 1003.5
20260903123049 60 170 0.0 2.0 0.00 0.00 0.00 42 1003.5
20260903121648 60 259 0.0 2.0 0.00 0.00 0.00 43 1003.5
20260903120058 60 214 1.0 3.0 0.00 0.00 0.00 44 1003.4
20260903114547 61 244 0.0 2.0 0.00 0.00 0.00 43 1003.2
20260903113050 60 154 1.0 4.0 0.00 0.00 0.00 45 1003.1
20260903111644 60 59 0.0 1.0 0.00 0.00 0.00 46 1003.2
20260903110047 61 356 1.0 3.0 0.00 0.00 0.00 41 1003.3
20260903104542 61 329 0.0 4.0 0.00 0.00 0.00 41 1003.3
20260903103040 63 140 0.0 4.0 0.00 0.00 0.00 41 1003.3
20260903101640 65 149 0.0 0.0 0.00 0.00 0.00 38 1003.2
20260903100039 65 161 0.0 2.0 0.00 0.00 0.00 38 1003.3
20260903094550 63 149 0.0 2.0 0.00 0.00 0.00 40 1003.3
20260903093138 62 201 0.0 3.0 0.00 0.00 0.00 41 1003.3
20260903091636 62 253 2.0 4.0 0.00 0.00 0.00 41 1003.3
20260903090036 64 232 0.0 1.0 0.00 0.00 0.00 40 1003.2
20260903084536 63 205 0.0 0.0 0.00 0.00 0.00 42 1003.4
20260903083035 62 219 0.0 2.0 0.00 0.00 0.00 42 1003.5
20260903081631 63 211 1.0 2.0 0.00 0.00 0.00 40 1003.5
20260903080045 62 1 0.0 6.0 0.00 0.00 0.00 40 1003.4
20260903074526 64 238 0.0 2.0 0.00 0.00 0.00 38 1003.0
20260903073025 64 275 0.0 3.0 0.00 0.00 0.00 38 1003.0
20260903071522 66 272 1.0 4.0 0.00 0.00 0.00 36 1003.2
20260903070020 65 108 0.0 1.0 0.00 0.00 0.00 41 1003.3
20260903064618 65 159 1.0 3.0 0.00 0.00 0.00 37 1003.1
20260903063016 67 222 0.0 2.0 0.00 0.00 0.00 35 1002.9
20260903061515 67 213 0.0 3.0 0.00 0.00 0.00 35 1002.8
20260903060011 70 214 1.0 2.0 0.00 0.00 0.00 32 1002.6
20260903054623 70 152 2.0 2.0 0.00 0.00 0.00 33 1002.5
20260903053010 71 136 1.0 4.0 0.00 0.00 0.00 33 1002.7
20260903051509 69 30 0.0 3.0 0.00 0.00 0.00 34 1002.7
20260903050020 71 192 1.0 3.0 0.00 0.00 0.00 32 1002.7
20260903044610 73 208 2.0 3.0 0.00 0.00 0.00 31 1002.8
20260903043010 73 223 3.0 6.0 0.00 0.00 0.00 30 1002.9
20260903041513 73 142 2.0 7.0 0.00 0.00 0.00 30 1002.8
20260903040009 72 120 0.0 1.0 0.00 0.00 0.00 31 1002.7
20260903034610 74 310 0.0 6.0 0.00 0.00 0.00 29 1002.4
20260903033008 75 168 5.0 7.0 0.00 0.00 0.00 28 1002.2
20260903031507 76 173 5.0 8.0 0.00 0.00 0.00 27 1002.1
20260903030006 76 188 4.0 8.0 0.00 0.00 0.00 26 1002.0
20260903024607 78 197 6.0 9.0 0.00 0.00 0.00 26 1001.8
20260903023008 79 179 5.0 11.0 0.00 0.00 0.00 26 1001.5
20260903021505 79 192 5.0 8.0 0.00 0.00 0.00 26 1001.3
20260903020003 79 147 3.0 5.0 0.00 0.00 0.00 27 1001.1
20260903014604 81 142 3.0 5.0 0.00 0.00 0.00 26 1000.9
20260903013001 83 159 5.0 10.0 0.00 0.00 0.00 23 1000.9
20260903011501 82 168 3.0 7.0 0.00 0.00 0.00 24 1001.0
20260903010002 83 193 6.0 10.0 0.00 0.00 0.00 24 1001.1
20260903004602 83 182 6.0 8.0 0.00 0.00 0.00 24 1001.2
20260903003059 83 166 7.0 13.0 0.00 0.00 0.00 24 1001.3
20260903001606 85 211 11.0 16.0 0.00 0.00 0.00 22 1001.1
20260902234600 87 173 12.0 26.0 0.00 0.00 0.00 21 1001.2
20260902233103 86 208 17.0 26.0 0.00 0.00 0.00 21 1001.1
20260902231558 87 175 8.0 15.0 0.00 0.00 0.00 22 1000.8